Helicity
44 27 141 157 85 159 180 219 229 227 265 233 306 292 318 322 279 379 372 499 501 493
30 97 154 209 131 49 59 81 162 261 359 304 309 312 308 329 354 443 505 458 412 470
156 129 186 212 240 137 82 180 296 307 330 311 310 342 344 393 397 441 475 465 418 398
300 307 253 145 139 80 116 191 251 201 242 299 337 340 373 389 423 456 478 462 334 273
361 304 242 -71 119 195 183 177 160 168 231 282 324 340 360 381 389 342 327 257 197 184
252 197 208 225 283 297 250 245 250 257 281 309 329 343 330 333 322 236 187 197 204 204
332 315 358 357 327 290 280 304 327 344 379 374 354 328 313 269 254 246 228 239 200 192
455 423 362 336 310 327 347 354 368 387 399 395 367 325 286 267 257 254 235 176 133 116
409 420 380 359 342 348 356 343 356 382 370 332 306 282 263 280 274 208 174 139 121 114
430 424 373 342 339 326 325 352 357 333 315 326 293 241 256 217 180 156 125 117 131 132
419 410 385 405 334 340 325 306 295 281 255 257 219 190 174 164 151 151 170 189 198 183
369 408 375 327 311 290 294 264 227 202 234 219 203 205 185 179 191 197 197 166 158 163
362 362 328 305 293 263 214 198 229 291 330 341 333 289 275 242 196 207 175 152 150 164
353 329 313 297 240 214 288 343 369 412 329 340 312 281 259 212 172 143 131 136 122 115
Wind_Speed
42 39 33 32 20 18 23 23 24 26 18 16 13 14 14 21 25 30 30 31 30 29
50 35 27 30 36 21 15 16 21 20 18 13 10 11 15 23 26 25 29 26 25 36
38 34 25 20 15 12 13 16 14 12 13 10 15 19 22 24 24 22 27 26 28 31
33 28 28 18 11 8 11 13 16 13 15 18 20 23 25 24 23 24 29 30 32 34
33 39 53 38 12 12 15 15 17 17 18 23 22 22 22 21 23 23 27 31 30 32
23 15 14 11 10 11 13 16 18 20 22 22 22 23 24 25 25 27 26 26 28 37
4 4 4 7 11 15 18 20 25 26 25 26 25 26 25 24 25 26 27 31 36 41
4 5 9 13 17 18 21 24 24 25 27 27 26 26 25 26 26 26 32 38 39 42
7 11 15 17 17 21 24 23 23 25 25 26 28 24 24 24 28 32 36 42 44 46
10 11 14 14 17 17 18 20 23 24 24 26 25 22 25 28 32 36 40 44 48 52
9 10 11 13 13 15 17 20 22 23 24 25 26 26 28 30 35 40 45 48 52 57
6 7 8 10 13 16 18 21 24 26 25 27 26 26 29 34 38 43 50 54 58 62
8 9 10 13 15 18 20 24 25 29 26 25 28 31 33 37 43 50 55 57 60 64
7 8 10 13 18 21 24 24 24 29 26 29 30 34 37 42 49 54 60 64 66 67
Wind_Direction
187 187 185 191 194 211 201 201 210 215 243 237 257 288 294 309 311 317 305 314 311 319
194 194 191 184 184 194 199 211 226 245 246 261 291 308 307 310 312 317 317 315 316 313
203 206 207 195 210 270 289 276 274 275 299 299 309 316 317 316 315 313 324 314 318 320
229 231 261 263 247 274 293 306 310 321 320 316 318 319 318 317 317 317 318 326 317 320
251 281 274 225 261 276 300 310 319 326 327 327 324 323 320 318 318 317 320 323 323 322
215 224 263 259 293 313 320 324 325 327 327 330 329 327 328 326 327 327 327 327 325 324
248 265 300 331 328 329 332 329 326 327 329 330 332 332 333 335 332 330 332 331 328 328
343 353 348 342 337 339 336 333 333 334 336 338 337 336 334 335 337 338 334 331 330 329
336 337 339 341 337 333 332 337 338 338 339 339 338 345 347 347 340 335 333 331 332 333
317 325 336 341 339 340 343 344 342 344 345 344 347 348 346 342 338 335 335 335 334 333
309 322 338 342 345 347 347 345 344 343 343 343 343 344 344 345 343 339 338 340 339 337
299 314 330 337 341 341 341 340 338 337 337 340 343 349 346 342 341 339 337 337 337 335
299 308 320 328 332 333 335 335 338 338 345 353 350 349 348 344 338 334 334 336 337 337
282 302 316 324 324 326 332 339 343 344 347 346 346 345 345 341 336 334 334 333 334 336